Puyallup, WA
on Thursday, January 10, 2013

Thursday
Previous Day Next Day
Daily Summary
 ActualAverage (KSEA)Record (KSEA)
Temperature
Mean Temperature °F 42°F  
Max Temperature 37°F 47°F 59°F (1981)
Min Temperature 28°F 37°F 12°F (1949)
Degree Days
Heating Degree Days 32 23  
Month to date heating degree days 238  
Since 1 July heating degree days 2176  
Cooling Degree Days 0 0  
Month to date cooling degree days 0  
Year to date cooling degree days 0  
Moisture
Dew Point 32°F   
Average Humidity 97    
Maximum Humidity 100    
Minimum Humidity 81    
Precipitation
Precipitation 0.03 in 0.20 in 0.94 in (2006)
Month to date precipitation 1.89  
Year to date precipitation 1.89  
Snow
Snow 0.00 in in 3.00 in (2007)
Month to date snowfall  
Since 1 July snowfall  
Snow Depth in   
Wind
Wind Speed 0 mph   
Max Wind Speed 4 mph   
Max Gust Speed mph   
Visibility 6 miles   
Events Fog , Rain , Snow   

Key: T is trace of precipitation, MM is missing value
Source: NWS Daily Summary
Time(PST)TemperatureDew PointHumidity Pressure Visibility Wind DirectionWind SpeedGust SpeedPrecipitationEvents Conditions
12:15 AM 32.0°F 32.0°F 100% 29.95 in 10.0 miles Calm Calm - N/A   Clear
12:35 AM 32.0°F 32.0°F 100% 29.95 in 10.0 miles Calm Calm - N/A   Clear
12:55 AM 32.0°F 32.0°F 100% 29.95 in 10.0 miles Calm Calm - N/A   Clear
1:15 AM 32.0°F 32.0°F 100% 29.95 in 10.0 miles Calm Calm - N/A   Partly Cloudy
1:35 AM 28.4°F 28.4°F 100% 29.95 in 10.0 miles Calm Calm - N/A   Partly Cloudy
1:55 AM 28.4°F 28.4°F 100% 29.96 in 10.0 miles Calm Calm - N/A   Clear
2:15 AM 28.4°F 28.4°F 100% 29.96 in 10.0 miles Calm Calm - N/A   Clear
2:35 AM 30.2°F 30.2°F 100% 29.97 in 10.0 miles Calm Calm - N/A   Scattered Clouds
2:55 AM 28.4°F 28.4°F 100% 29.97 in 10.0 miles Calm Calm - N/A   Mostly Cloudy
3:35 AM 28.4°F 28.4°F 100% 29.97 in 10.0 miles Calm Calm - N/A   Clear
3:55 AM 28.4°F 28.4°F 100% 29.98 in 10.0 miles Calm Calm - N/A   Scattered Clouds
4:15 AM 30.2°F 30.2°F 100% 29.98 in 10.0 miles Calm Calm - N/A   Mostly Cloudy
4:35 AM 30.2°F 30.2°F 100% 29.98 in 10.0 miles Calm Calm - N/A   Mostly Cloudy
4:55 AM 30.2°F 30.2°F 100% 29.99 in 10.0 miles Calm Calm - N/A   Mostly Cloudy
5:35 AM 32.0°F 32.0°F 100% 29.99 in 10.0 miles Calm Calm - N/A   Overcast
5:55 AM 32.0°F 32.0°F 100% 30.00 in 1.8 miles Calm Calm - N/A   Overcast
6:15 AM 32.0°F 32.0°F 100% 30.00 in 0.2 miles Calm Calm - N/A Fog Light Freezing Fog
6:35 AM 32.0°F 32.0°F 100% 30.01 in 0.2 miles Calm Calm - N/A Fog Fog
6:55 AM 32.0°F 32.0°F 100% 30.02 in 0.2 miles Calm Calm - N/A Fog Fog
7:15 AM 32.0°F 32.0°F 100% 30.03 in 0.2 miles Calm Calm - N/A Fog Fog
7:35 AM 32.0°F 32.0°F 100% 30.03 in 0.5 miles Calm Calm - N/A Fog Fog
7:55 AM 32.0°F 32.0°F 100% 30.04 in 0.5 miles Calm Calm - N/A Fog Fog
8:15 AM 32.0°F 32.0°F 100% 30.05 in 0.8 miles Calm Calm - N/A   Overcast
8:35 AM 32.0°F 32.0°F 100% 30.07 in 1.5 miles Calm Calm - N/A   Scattered Clouds
8:55 AM 32.0°F 32.0°F 100% 30.07 in 2.0 miles Calm Calm - N/A   Mostly Cloudy
9:15 AM 32.0°F 32.0°F 100% 30.07 in 1.5 miles Calm Calm - N/A   Overcast
10:15 AM 33.8°F 33.8°F 100% 30.08 in 4.0 miles Calm Calm - N/A   Mostly Cloudy
10:35 AM 33.8°F 33.8°F 100% 30.08 in 5.0 miles Calm Calm - N/A   Scattered Clouds
10:55 AM 33.8°F 33.8°F 100% 30.08 in 9.0 miles Calm Calm - N/A   Partly Cloudy
11:15 AM 33.8°F 33.8°F 100% 30.07 in 10.0 miles Calm Calm - N/A   Partly Cloudy
11:35 AM 35.6°F 33.8°F 93% 30.07 in 10.0 miles Calm Calm - N/A   Scattered Clouds
11:55 AM 35.6°F 32.0°F 87% 30.07 in 10.0 miles Calm Calm - N/A   Scattered Clouds
12:15 PM 35.6°F 32.0°F 87% 30.07 in 10.0 miles Calm Calm - N/A   Partly Cloudy
12:35 PM 35.6°F 32.0°F 87% 30.06 in 10.0 miles Calm Calm - N/A   Partly Cloudy
12:55 PM 37.4°F 32.0°F 81% 30.05 in 10.0 miles West 3.5 mph - N/A   Scattered Clouds
1:15 PM 35.6°F 32.0°F 87% 30.05 in 10.0 miles Calm Calm - N/A   Scattered Clouds
1:35 PM 35.6°F 32.0°F 87% 30.06 in 10.0 miles Calm Calm - N/A   Scattered Clouds
1:55 PM 35.6°F 32.0°F 87% 30.07 in 10.0 miles Calm Calm - N/A   Mostly Cloudy
2:15 PM 35.6°F 32.0°F 87% 30.07 in 10.0 miles Calm Calm - N/A   Mostly Cloudy
2:35 PM 35.6°F 33.8°F 93% 30.07 in 10.0 miles Calm Calm - N/A   Mostly Cloudy
2:55 PM 35.6°F 33.8°F 93% 30.07 in 10.0 miles Calm Calm - N/A   Mostly Cloudy
3:15 PM 35.6°F 33.8°F 93% 30.07 in 10.0 miles Calm Calm - N/A   Mostly Cloudy
3:35 PM 35.6°F 33.8°F 93% 30.07 in 10.0 miles West 3.5 mph - N/A   Overcast
3:55 PM 35.6°F 32.0°F 87% 30.08 in 10.0 miles Calm Calm - N/A   Mostly Cloudy
4:15 PM 35.6°F 33.8°F 93% 30.08 in 9.0 miles West 3.5 mph - N/A   Scattered Clouds
4:35 PM 35.6°F 33.8°F 93% 30.08 in 8.0 miles WSW 3.5 mph - N/A Rain Light Rain
4:55 PM 35.6°F 33.8°F 93% 30.08 in 10.0 miles Calm Calm - N/A   Mostly Cloudy
5:15 PM 33.8°F 33.8°F 100% 30.08 in 9.0 miles Calm Calm - N/A Rain Light Rain
5:35 PM 33.8°F 33.8°F 100% 30.08 in 7.0 miles Calm Calm - N/A Rain Light Rain
5:55 PM 32.0°F 32.0°F 100% 30.08 in 2.5 miles Calm Calm - N/A Snow Light Snow
6:15 PM 32.0°F 32.0°F 100% 30.08 in 6.0 miles Calm Calm - N/A   Mostly Cloudy
6:35 PM 32.0°F 32.0°F 100% 30.08 in 5.0 miles Calm Calm - N/A Snow Light Snow
6:55 PM 32.0°F 32.0°F 100% 30.08 in 7.0 miles Calm Calm - N/A   Mostly Cloudy
7:15 PM 32.0°F 32.0°F 100% 30.08 in 4.0 miles Calm Calm - N/A Rain Light Rain
7:35 PM 32.0°F 32.0°F 100% 30.08 in 1.8 miles Calm Calm - N/A Snow Light Snow
7:55 PM 32.0°F 32.0°F 100% 30.08 in 3.0 miles Calm Calm - 0.01 in Snow Light Snow
8:15 PM 32.0°F 32.0°F 100% 30.08 in 3.0 miles Calm Calm - N/A   Mostly Cloudy
8:35 PM 32.0°F 32.0°F 100% 30.09 in 1.2 miles Calm Calm - N/A Snow Light Snow
8:55 PM 32.0°F 32.0°F 100% 30.09 in 1.8 miles Calm Calm - 0.01 in Snow Light Snow
9:15 PM 32.0°F 32.0°F 100% 30.09 in 1.2 miles Calm Calm - 0.01 in Snow Light Snow
9:35 PM 32.0°F 32.0°F 100% 30.09 in 2.5 miles Calm Calm - 0.01 in Snow Light Snow
9:55 PM 32.0°F 32.0°F 100% 30.10 in 3.0 miles Calm Calm - 0.01 in   Mostly Cloudy
10:15 PM 32.0°F 32.0°F 100% 30.10 in 2.5 miles Calm Calm - N/A   Mostly Cloudy
10:35 PM 32.0°F 32.0°F 100% 30.10 in 2.5 miles Calm Calm - N/A   Mostly Cloudy
10:55 PM 32.0°F 32.0°F 100% 30.10 in 2.5 miles Calm Calm - N/A   Mostly Cloudy
11:15 PM 32.0°F 32.0°F 100% 30.11 in 2.0 miles Calm Calm - N/A   Mostly Cloudy
11:35 PM 32.0°F 32.0°F 100% 30.11 in 2.5 miles Calm Calm - N/A   Mostly Cloudy
11:55 PM 32.0°F 32.0°F 100% 30.11 in 2.5 miles Calm Calm - N/A   Mostly Cloudy
Moon Phase
Jan. 10 Jan. 11 Jan. 18 Jan. 26 Feb. 03
Sunrise:07:53 AM (PST) Moon Rise:06:37 AM (PST)1/10
Sunset:04:40 PM (PST) Moon Set:03:55 PM (PST)1/10

Copyright © 2014 The Weather Underground, Inc.